TimeCST,TemperatureF,Dew PointF,Humidity,Sea Level PressureIn,VisibilityMPH,Wind Direction,Wind SpeedMPH,Gust SpeedMPH,PrecipitationIn,Events,Conditions,WindDirDegrees,DateUTC
12:55 AM,37.0,25.0,62,29.98,10.0,SW,8.1,-,N/A,,Clear,220,2014-02-18 06:55:00
1:55 AM,37.9,24.1,57,29.97,10.0,SW,8.1,-,N/A,,Clear,220,2014-02-18 07:55:00
2:55 AM,37.9,24.1,57,29.95,10.0,SSW,8.1,-,N/A,,Clear,210,2014-02-18 08:55:00
3:55 AM,39.0,24.1,55,29.92,10.0,SSW,12.7,-,N/A,,Clear,210,2014-02-18 09:55:00
4:55 AM,39.0,23.0,53,29.91,10.0,SSW,11.5,-,N/A,,Clear,210,2014-02-18 10:55:00
5:55 AM,39.9,24.1,53,29.88,10.0,SSW,13.8,-,N/A,,Clear,200,2014-02-18 11:55:00
6:55 AM,39.0,24.1,55,29.87,10.0,SSW,12.7,-,N/A,,Clear,200,2014-02-18 12:55:00
7:55 AM,42.1,25.0,51,29.86,10.0,SSW,15.0,-,N/A,,Clear,200,2014-02-18 13:55:00
8:55 AM,45.0,26.1,48,29.84,10.0,SSW,17.3,25.3,N/A,,Clear,200,2014-02-18 14:55:00
9:55 AM,46.9,26.1,44,29.82,10.0,SSW,15.0,24.2,N/A,,Clear,210,2014-02-18 15:55:00
10:55 AM,46.9,27.0,46,29.78,10.0,SSW,15.0,26.5,N/A,,Clear,200,2014-02-18 16:55:00
11:55 AM,50.0,26.1,39,29.75,10.0,SSW,19.6,28.8,N/A,,Clear,210,2014-02-18 17:55:00
12:55 PM,52.0,26.1,37,29.73,10.0,SW,18.4,29.9,N/A,,Clear,230,2014-02-18 18:55:00
1:55 PM,53.1,28.0,38,29.70,10.0,SW,19.6,33.4,N/A,,Clear,230,2014-02-18 19:55:00
2:55 PM,53.1,30.0,41,29.69,10.0,SW,17.3,26.5,N/A,,Clear,230,2014-02-18 20:55:00
3:55 PM,54.0,30.9,41,29.68,10.0,SW,13.8,25.3,N/A,,Clear,230,2014-02-18 21:55:00
4:55 PM,55.0,30.9,40,29.70,10.0,SW,11.5,-,N/A,,Clear,230,2014-02-18 22:55:00
5:55 PM,51.1,30.9,46,29.71,10.0,SSW,11.5,-,N/A,,Clear,210,2014-02-18 23:55:00
6:55 PM,50.0,30.9,48,29.73,10.0,SW,9.2,-,N/A,,Clear,230,2014-02-19 00:55:00
7:55 PM,48.9,32.0,52,29.76,10.0,WSW,8.1,-,N/A,,Clear,250,2014-02-19 01:55:00
8:55 PM,48.0,32.0,54,29.80,10.0,WNW,17.3,25.3,N/A,,Clear,300,2014-02-19 02:55:00
9:55 PM,46.0,30.0,54,29.83,10.0,NNW,15.0,23.0,N/A,,Clear,330,2014-02-19 03:55:00
10:55 PM,43.0,30.0,60,29.87,10.0,NW,11.5,-,N/A,,Clear,310,2014-02-19 04:55:00
11:55 PM,41.0,30.9,67,29.88,10.0,WNW,9.2,-,N/A,,Clear,300,2014-02-19 05:55:00